Wind_Speed
29 31 32 34 35 35 34 33 31 30 30 30 30 31 32 33 35 36 37 38 38 39 40 40 40 40 40 39 39 40 41 40 40 41 39 38 38 37 36 36 35 34 34
32 33 34 34 34 34 33 33 32 30 30 30 31 32 33 35 36 37 38 39 39 39 39 39 39 38 38 37 37 38 38 37 38 39 38 37 36 36 37 37 36 34 34
34 33 33 33 31 32 32 32 32 31 31 31 31 31 32 33 35 36 38 40 41 41 40 40 40 40 39 38 38 37 37 36 37 38 38 37 35 36 36 36 36 34 34
34 33 30 28 29 31 31 32 32 30 29 28 28 28 29 30 32 34 36 37 39 40 41 41 41 41 41 40 39 38 38 37 37 38 38 38 36 36 35 36 37 36 35
29 26 25 26 28 30 31 31 29 27 25 24 23 23 25 27 29 32 34 35 37 38 39 40 41 41 42 41 40 39 38 38 37 38 38 38 38 37 36 35 35 36 35
25 23 23 25 28 29 30 28 25 23 22 21 21 22 24 26 28 30 33 34 35 37 37 38 39 41 41 42 41 40 39 38 38 38 38 38 38 38 36 35 35 36 36
24 24 24 25 26 27 27 25 24 23 23 23 24 25 26 28 29 31 33 35 35 35 35 36 37 38 40 41 41 41 40 39 38 38 38 38 38 37 37 36 35 35 35
24 23 23 23 25 26 26 25 24 25 26 27 29 30 31 32 33 33 34 36 36 35 34 33 34 36 37 38 40 40 41 40 39 39 39 38 37 37 36 36 35 34 34
22 21 22 24 25 27 28 29 29 30 32 33 34 36 37 37 37 36 36 37 37 36 35 33 32 32 34 35 37 38 39 39 40 39 38 37 37 36 36 35 33 32 31
24 25 26 28 30 32 33 34 35 35 36 37 38 39 40 41 41 40 39 38 37 36 36 34 31 30 30 31 33 34 35 36 37 37 36 36 36 35 33 32 30 30 28
30 31 32 33 35 37 39 40 40 40 41 41 41 41 42 42 42 42 40 39 37 36 36 34 31 29 28 29 29 30 31 31 32 32 32 31 31 30 29 27 27 27 26
36 37 38 40 41 43 44 45 46 46 45 45 44 44 44 44 43 43 41 39 37 36 35 34 32 29 28 27 27 26 26 26 26 26 27 27 26 25 25 24 24 24 25
41 43 44 46 47 48 49 49 50 51 50 50 48 48 47 45 44 43 41 39 37 35 34 34 32 29 27 26 25 23 23 22 22 22 23 24 24 23 23 24 24 24 25
47 48 50 52 53 53 54 54 54 55 54 54 53 52 50 49 46 44 42 40 38 35 34 33 31 28 27 26 24 22 21 20 20 21 22 22 22 22 22 23 23 24 24
52 54 55 56 57 58 58 58 58 58 58 58 58 56 54 53 50 47 44 42 39 35 33 32 31 28 26 24 23 21 19 18 19 19 20 21 22 22 21 22 22 21 20
58 60 61 62 63 64 64 63 62 62 63 63 62 61 59 57 55 52 48 44 40 36 33 32 30 28 25 23 22 20 18 18 18 19 20 20 20 19 19 19 19 18 17
62 64 65 66 66 67 68 70 70 70 70 69 68 66 64 62 59 55 50 46 42 38 34 32 29 27 24 21 20 20 19 19 19 18 17 17 17 15 16 17 17 16 16
69 72 74 76 78 80 81 81 79 79 78 76 74 72 70 67 63 57 50 46 42 38 35 32 29 26 23 20 19 18 16 17 18 18 16 15 15 15 15 15 15 15 13
79 81 83 85 86 87 87 86 85 84 82 80 77 74 71 67 63 56 49 46 43 40 36 32 29 26 23 20 18 16 15 14 15 15 15 14 14 15 14 14 13 13 12
82 84 84 85 85 85 85 85 82 79 75 71 67 63 61 59 57 54 49 47 44 41 38 33 30 27 24 21 19 16 15 14 14 14 14 13 13 14 14 13 12 12 11
79 77 74 72 71 70 69 68 65 60 55 52 49 46 46 47 48 50 49 48 45 43 39 34 31 28 25 22 19 17 15 15 14 14 14 13 13 14 13 12 12 11 10
63 60 58 54 52 51 50 48 44 40 38 35 33 33 33 34 38 44 48 48 46 44 40 35 31 29 26 22 20 18 16 14 14 15 15 15 15 14 13 12 11 10 10
49 47 46 44 42 42 42 40 37 35 32 31 30 30 30 30 31 38 47 50 46 44 41 36 32 30 26 23 20 18 16 15 14 15 16 16 15 14 13 12 11 11 10
43 43 43 42 41 40 39 39 38 37 35 34 33 32 31 30 30 34 45 50 47 44 42 37 33 30 27 23 21 19 17 17 16 16 16 16 15 14 13 12 12 11 10
45 45 46 47 46 45 43 42 41 40 39 38 35 33 31 30 30 33 44 50 45 42 41 37 32 29 26 24 22 20 19 18 18 18 17 16 15 15 14 13 13 11 10
50 51 53 53 51 50 47 44 43 42 40 38 35 33 32 30 31 33 42 49 46 42 41 37 33 31 29 27 24 22 21 20 19 19 18 17 16 15 14 13 13 12 10
Wind_Direction
287 293 296 298 298 298 297 296 296 297 299 299 300 300 301 300 297 294 291 288 285 283 281 280 279 278 276 275 274 273 272 272 271 271 271 271 273 272 271 271 269 267 267
290 294 297 298 298 297 296 297 299 302 304 306 306 306 305 304 301 298 295 291 287 283 281 279 278 277 276 275 274 273 272 271 271 271 271 270 270 272 271 270 270 268 268
292 294 295 295 293 294 297 300 303 307 309 309 309 309 308 308 306 304 301 296 292 287 283 279 277 275 275 274 274 273 272 271 270 271 271 271 269 268 270 271 271 270 267
289 289 287 284 287 292 296 301 304 305 305 306 308 310 311 313 313 311 307 302 297 291 285 281 278 276 275 274 274 273 272 271 270 270 271 271 271 269 268 269 270 270 270
280 278 277 281 287 291 293 296 296 296 298 302 308 313 316 319 320 320 317 311 305 298 290 283 278 275 274 274 274 273 272 271 270 270 270 270 271 271 270 267 268 269 271
273 273 278 283 285 286 287 287 287 288 292 298 305 311 316 320 323 324 324 320 313 305 297 288 281 276 274 273 273 273 272 270 270 269 270 269 270 270 269 269 268 269 270
274 277 278 279 277 277 278 279 281 285 291 297 304 308 312 316 319 322 325 325 320 313 305 294 286 279 275 273 272 271 270 269 269 269 269 269 269 268 269 269 269 269 269
276 274 272 271 271 272 276 280 286 292 299 304 308 311 313 315 317 319 322 325 324 319 313 302 291 283 278 275 272 270 268 267 267 267 268 269 269 268 267 267 268 267 267
276 274 274 275 276 280 285 291 297 302 306 309 310 311 312 313 315 317 319 322 323 322 318 311 301 290 283 278 274 270 267 265 265 265 266 267 267 267 267 265 264 264 263
286 285 285 286 288 291 293 297 300 303 305 306 308 308 309 311 312 314 315 318 320 321 319 315 308 300 293 286 279 274 269 266 264 264 265 265 265 265 264 262 259 257 255
291 291 291 291 293 294 296 298 299 301 302 303 305 305 306 308 309 311 312 314 315 317 318 316 311 305 301 295 287 279 273 268 264 263 263 263 263 260 258 255 252 249 246
290 291 291 292 292 293 294 296 297 298 299 300 302 303 304 305 306 307 308 309 311 313 315 315 311 307 304 301 294 285 277 270 264 261 259 259 257 253 249 247 244 240 236
289 290 290 290 290 291 292 294 295 296 297 297 299 300 301 302 303 305 305 306 307 309 312 313 311 308 305 303 297 290 280 269 260 254 252 252 249 246 242 239 236 233 233
289 288 288 288 288 288 289 290 291 292 293 294 296 297 297 298 300 301 302 303 303 304 307 309 308 306 305 303 297 290 280 268 256 247 245 244 240 232 226 226 227 225 226
286 285 285 284 284 284 285 285 287 288 289 290 292 293 293 294 296 297 298 299 298 298 300 304 304 302 302 302 297 290 277 266 255 244 239 235 230 226 225 223 220 219 219
283 281 281 280 281 281 280 280 281 283 285 286 286 288 289 289 290 291 292 292 292 291 293 296 298 297 296 297 296 289 274 262 254 248 240 235 232 230 227 219 216 218 219
283 279 277 277 277 277 279 280 280 280 281 282 282 282 283 284 284 285 284 284 284 283 284 287 290 290 289 291 290 285 271 260 256 249 240 234 232 229 225 218 214 215 217
283 282 281 281 280 281 281 280 280 279 279 279 279 278 278 278 278 277 276 274 274 274 275 278 281 282 281 283 283 278 269 258 254 249 241 234 231 226 221 215 212 211 213
285 285 284 284 284 284 283 282 281 280 280 279 278 276 274 273 271 268 265 263 264 264 265 268 271 272 270 272 276 272 263 255 245 237 230 223 219 215 212 209 207 207 209
287 287 287 286 286 286 285 284 283 282 281 279 277 275 272 268 264 259 253 252 253 255 256 258 260 262 260 261 265 265 256 247 236 228 221 214 208 204 202 200 200 202 207
293 292 291 291 290 290 289 288 286 283 280 277 273 270 268 265 258 250 242 240 243 245 248 248 251 252 251 252 257 257 249 238 228 218 209 202 197 195 195 197 198 200 204
299 298 297 297 296 294 293 292 289 283 277 273 269 266 266 265 256 243 232 229 233 237 241 241 242 243 244 245 248 248 240 228 216 208 203 199 195 195 196 197 198 199 201
303 302 301 301 300 297 294 291 287 283 278 275 272 268 268 267 261 242 226 222 225 228 234 235 234 234 236 238 240 235 225 214 204 199 195 193 193 195 196 197 198 200 203
307 305 303 302 300 297 292 288 284 281 277 276 273 271 270 267 266 247 226 219 218 221 226 228 225 225 228 231 231 222 211 203 197 193 190 190 193 195 197 198 201 205 208
308 306 304 302 299 295 291 286 282 279 276 275 273 270 268 264 265 252 228 218 211 211 216 218 216 217 222 223 220 212 202 196 192 191 191 193 197 199 201 203 206 209 213
309 306 304 302 299 295 290 284 281 277 274 271 268 265 264 262 263 251 228 215 207 206 205 205 205 207 213 215 212 204 196 191 189 191 193 196 199 201 204 208 211 215 220
Height
5869 5868 5865 5862 5860 5857 5854 5852 5851 5849 5847 5845 5842 5840 5838 5835 5833 5830 5828 5825 5823 5821 5819 5818 5816 5815 5815 5814 5813 5812 5812 5812 5812 5811 5812 5813 5813 5813 5814 5813 5814 5814 5815
5864 5861 5859 5856 5853 5850 5848 5846 5844 5842 5839 5837 5834 5832 5830 5827 5824 5821 5818 5816 5813 5812 5810 5808 5807 5805 5805 5804 5803 5802 5802 5802 5802 5801 5801 5802 5804 5804 5803 5803 5804 5805 5805
5857 5855 5852 5849 5846 5844 5841 5839 5837 5835 5832 5830 5828 5825 5822 5819 5816 5813 5809 5806 5803 5801 5799 5798 5797 5796 5795 5794 5794 5792 5792 5792 5792 5791 5790 5791 5794 5794 5794 5794 5794 5794 5795
5851 5849 5846 5844 5841 5839 5836 5833 5831 5829 5827 5824 5822 5819 5816 5813 5809 5805 5801 5796 5792 5790 5787 5786 5785 5784 5784 5783 5783 5782 5782 5782 5782 5781 5780 5781 5782 5783 5785 5785 5784 5784 5785
5845 5843 5841 5839 5836 5833 5831 5828 5826 5824 5821 5819 5816 5813 5810 5806 5802 5798 5793 5788 5783 5779 5776 5774 5773 5772 5772 5771 5771 5771 5771 5771 5771 5771 5771 5771 5771 5772 5773 5775 5775 5775 5775
5839 5838 5836 5834 5831 5828 5825 5823 5821 5819 5816 5813 5810 5807 5804 5800 5796 5792 5787 5781 5775 5770 5766 5764 5762 5760 5760 5759 5759 5759 5760 5760 5760 5760 5760 5760 5761 5762 5762 5764 5765 5765 5766
5834 5832 5830 5828 5825 5822 5819 5817 5815 5813 5810 5807 5804 5800 5796 5792 5789 5784 5779 5774 5768 5763 5757 5754 5751 5749 5748 5748 5747 5748 5748 5749 5749 5749 5749 5749 5750 5751 5752 5753 5754 5755 5756
5828 5826 5824 5821 5818 5815 5813 5810 5807 5804 5801 5798 5795 5791 5788 5784 5780 5776 5772 5767 5761 5755 5750 5745 5742 5739 5738 5737 5736 5736 5737 5737 5738 5738 5738 5739 5739 5740 5741 5743 5744 5745 5746
5821 5818 5816 5813 5810 5806 5803 5800 5797 5794 5791 5788 5785 5782 5779 5775 5772 5768 5763 5759 5753 5748 5743 5738 5734 5730 5728 5727 5726 5725 5725 5726 5726 5727 5727 5728 5728 5729 5731 5732 5734 5736 5737
5812 5809 5806 5803 5800 5796 5793 5790 5787 5784 5782 5779 5776 5773 5770 5766 5763 5759 5755 5751 5746 5741 5735 5730 5726 5722 5720 5717 5716 5715 5715 5715 5715 5716 5716 5717 5718 5719 5720 5722 5724 5726 5728
5802 5799 5796 5793 5790 5786 5783 5780 5777 5774 5772 5769 5767 5764 5760 5757 5754 5750 5747 5743 5738 5733 5728 5723 5719 5715 5712 5709 5707 5706 5705 5705 5705 5705 5705 5706 5708 5709 5711 5713 5715 5717 5720
5792 5788 5785 5782 5779 5775 5772 5769 5766 5763 5760 5758 5756 5753 5750 5747 5744 5741 5738 5735 5731 5726 5721 5717 5712 5709 5705 5702 5700 5698 5696 5696 5696 5696 5697 5698 5699 5701 5703 5705 5707 5710 5712
5781 5777 5774 5770 5767 5763 5760 5757 5753 5750 5748 5745 5743 5741 5739 5736 5734 5731 5728 5726 5723 5719 5715 5710 5706 5702 5699 5696 5693 5691 5689 5688 5688 5689 5690 5691 5693 5694 5697 5699 5701 5703 5706
5769 5765 5761 5756 5753 5749 5746 5743 5740 5737 5734 5732 5730 5729 5727 5725 5723 5721 5719 5717 5714 5711 5707 5703 5700 5696 5693 5690 5687 5685 5683 5682 5682 5683 5684 5685 5687 5689 5691 5694 5696 5698 5700
5755 5751 5746 5742 5738 5734 5731 5728 5725 5722 5719 5717 5716 5715 5714 5712 5711 5710 5709 5707 5705 5703 5700 5697 5693 5690 5687 5684 5682 5680 5679 5678 5678 5679 5679 5681 5682 5685 5687 5689 5691 5693 5695
5740 5735 5730 5725 5721 5718 5715 5711 5708 5706 5703 5701 5700 5699 5698 5698 5698 5697 5697 5696 5695 5693 5691 5689 5686 5684 5681 5679 5677 5675 5674 5674 5674 5675 5675 5677 5678 5680 5683 5684 5687 5689 5691
5724 5718 5712 5706 5702 5697 5694 5692 5690 5687 5685 5683 5681 5680 5680 5681 5682 5683 5684 5684 5684 5683 5682 5681 5679 5677 5675 5673 5672 5670 5669 5670 5670 5670 5671 5673 5675 5677 5678 5680 5682 5685 5688
5705 5698 5692 5685 5680 5675 5671 5667 5666 5663 5661 5660 5659 5659 5659 5661 5663 5666 5668 5669 5671 5671 5671 5671 5670 5670 5668 5667 5666 5665 5664 5665 5665 5666 5667 5669 5671 5673 5675 5677 5679 5682 5684
5680 5672 5665 5658 5653 5647 5642 5639 5637 5635 5633 5632 5632 5633 5634 5637 5641 5645 5650 5653 5656 5658 5660 5661 5661 5661 5661 5661 5661 5660 5660 5660 5661 5662 5663 5665 5667 5669 5671 5674 5676 5679 5681
5654 5645 5637 5630 5624 5618 5611 5608 5607 5605 5603 5603 5604 5605 5607 5611 5616 5623 5630 5636 5640 5643 5647 5650 5651 5652 5654 5654 5655 5655 5655 5656 5656 5658 5659 5661 5664 5666 5669 5671 5674 5676 5679
5625 5616 5609 5604 5599 5592 5586 5582 5581 5579 5578 5578 5580 5582 5584 5588 5593 5600 5609 5617 5623 5628 5633 5638 5641 5643 5645 5647 5648 5649 5650 5651 5652 5654 5656 5658 5661 5664 5666 5669 5672 5674 5677
5600 5592 5585 5582 5577 5572 5566 5563 5561 5560 5560 5561 5563 5564 5566 5569 5572 5579 5588 5598 5606 5613 5619 5625 5630 5633 5636 5639 5641 5643 5645 5646 5647 5650 5652 5655 5658 5661 5664 5667 5670 5672 5675
5583 5577 5571 5567 5563 5558 5553 5549 5548 5547 5548 5549 5550 5551 5552 5554 5557 5561 5569 5579 5588 5598 5606 5613 5619 5624 5628 5631 5634 5637 5639 5641 5643 5646 5649 5652 5655 5659 5662 5665 5668 5670 5673
5570 5564 5558 5553 5549 5545 5541 5538 5536 5535 5535 5536 5537 5538 5540 5541 5543 5547 5553 5562 5572 5584 5593 5602 5609 5614 5620 5624 5628 5631 5634 5637 5639 5642 5646 5649 5653 5656 5660 5663 5666 5668 5670
5559 5552 5545 5539 5534 5529 5526 5523 5521 5521 5521 5522 5524 5525 5526 5528 5531 5533 5538 5547 5557 5570 5582 5591 5599 5607 5613 5618 5622 5626 5629 5632 5636 5639 5643 5647 5650 5654 5657 5660 5663 5665 5667
5546 5538 5530 5523 5517 5511 5508 5505 5504 5504 5505 5507 5509 5511 5513 5516 5518 5519 5525 5535 5547 5559 5570 5581 5590 5599 5605 5610 5616 5621 5625 5629 5632 5636 5640 5644 5647 5651 5655 5658 5660 5662 5664